| time (UTC) | temp C | wind direction | speed KPH | gust KPH | rain 1hr cm | rain 24hr cm | rain mn cm | humidity % | barometer mb |
| 20260901082401 | 16 | 266 | 3.2 | 9.7 | 0.00 | 0.00 | 0.00 | 91 | 1009.6 |
| 20260901081856 | 16 | 274 | 0.0 | 4.8 | 0.00 | 0.00 | 0.00 | 91 | 1009.7 |
| 20260901081352 | 16 | 258 | 3.2 | 11.3 | 0.00 | 0.00 | 0.00 | 91 | 1009.4 |
| 20260901080851 | 16 | 245 | 4.8 | 4.8 | 0.00 | 0.00 | 0.00 | 91 | 1009.6 |
| 20260901080346 | 16 | 264 | 3.2 | 6.4 | 0.00 | 0.00 | 0.00 | 91 | 1009.4 |
| 20260901075846 | 16 | 282 | 3.2 | 11.3 | 0.00 | 0.00 | 0.00 | 91 | 1009.4 |
| 20260901075341 | 16 | 253 | 4.8 | 9.7 | 0.00 | 0.00 | 0.00 | 91 | 1009.3 |
| 20260901074836 | 16 | 272 | 6.4 | 9.7 | 0.00 | 0.00 | 0.00 | 91 | 1009.0 |
| 20260901074330 | 16 | 272 | 4.8 | 12.9 | 0.00 | 0.00 | 0.00 | 91 | 1009.2 |
| 20260901073826 | 16 | 265 | 0.0 | 3.2 | 0.00 | 0.00 | 0.00 | 91 | 1009.1 |
| 20260901073321 | 16 | 232 | 3.2 | 11.3 | 0.00 | 0.00 | 0.00 | 91 | 1009.0 |
| 20260901072817 | 16 | 286 | 3.2 | 11.3 | 0.00 | 0.00 | 0.00 | 91 | 1008.9 |
| 20260901072317 | 16 | 297 | 3.2 | 11.3 | 0.00 | 0.00 | 0.00 | 92 | 1009.0 |
| 20260901071813 | 15 | 288 | 6.4 | 9.7 | 0.00 | 0.00 | 0.00 | 92 | 1008.8 |
| 20260901071311 | 15 | 235 | 1.6 | 1.6 | 0.00 | 0.00 | 0.00 | 92 | 1009.0 |
| 20260901070810 | 15 | 228 | 0.0 | 4.8 | 0.00 | 0.00 | 0.00 | 92 | 1008.8 |
| 20260901070305 | 15 | 265 | 1.6 | 3.2 | 0.00 | 0.00 | 0.00 | 92 | 1008.8 |
| 20260901065805 | 15 | 257 | 0.0 | 0.0 | 0.00 | 0.00 | 0.00 | 92 | 1008.8 |
| 20260901065300 | 15 | 285 | 1.6 | 3.2 | 0.00 | 0.00 | 0.00 | 92 | 1008.6 |
| 20260901064756 | 15 | 233 | 1.6 | 3.2 | 0.00 | 0.00 | 0.00 | 92 | 1008.6 |
| 20260901064252 | 16 | 277 | 0.0 | 4.8 | 0.00 | 0.00 | 0.00 | 92 | 1008.6 |
| 20260901063749 | 16 | 281 | 3.2 | 6.4 | 0.00 | 0.00 | 0.00 | 92 | 1008.4 |
| 20260901063245 | 16 | 249 | 3.2 | 6.4 | 0.00 | 0.00 | 0.00 | 91 | 1008.6 |
| 20260901062741 | 16 | 255 | 3.2 | 6.4 | 0.00 | 0.00 | 0.00 | 92 | 1008.7 |
| 20260901062237 | 16 | 319 | 3.2 | 9.7 | 0.00 | 0.00 | 0.00 | 91 | 1008.5 |
| 20260901061733 | 16 | 253 | 1.6 | 3.2 | 0.00 | 0.00 | 0.00 | 91 | 1008.7 |
| 20260901061232 | 16 | 284 | 0.0 | 4.8 | 0.00 | 0.00 | 0.00 | 91 | 1008.5 |
| 20260901060727 | 16 | 252 | 0.0 | 1.6 | 0.00 | 0.00 | 0.00 | 91 | 1008.6 |
| 20260901060222 | 16 | 264 | 3.2 | 6.4 | 0.00 | 0.00 | 0.00 | 90 | 1008.6 |
| 20260901055718 | 16 | 292 | 3.2 | 6.4 | 0.00 | 0.00 | 0.00 | 90 | 1008.5 |
| 20260901055215 | 16 | 275 | 0.0 | 3.2 | 0.00 | 0.00 | 0.00 | 90 | 1008.5 |
| 20260901054711 | 16 | 284 | 3.2 | 4.8 | 0.00 | 0.00 | 0.00 | 90 | 1008.3 |
| 20260901054208 | 16 | 271 | 0.0 | 4.8 | 0.00 | 0.00 | 0.00 | 90 | 1008.5 |
| 20260901053703 | 16 | 277 | 1.6 | 3.2 | 0.00 | 0.00 | 0.00 | 90 | 1008.5 |
| 20260901053158 | 16 | 238 | 3.2 | 4.8 | 0.00 | 0.00 | 0.00 | 89 | 1008.4 |
| 20260901052654 | 17 | 286 | 1.6 | 6.4 | 0.00 | 0.00 | 0.00 | 89 | 1008.4 |
| 20260901052149 | 17 | 285 | 0.0 | 3.2 | 0.00 | 0.00 | 0.00 | 88 | 1008.2 |
| 20260901051648 | 17 | 279 | 1.6 | 3.2 | 0.00 | 0.00 | 0.00 | 88 | 1008.2 |
| 20260901051148 | 17 | 274 | 6.4 | 9.7 | 0.00 | 0.00 | 0.00 | 87 | 1008.1 |
| 20260901050643 | 17 | 238 | 0.0 | 3.2 | 0.00 | 0.00 | 0.00 | 86 | 1008.2 |
| 20260901050138 | 17 | 219 | 1.6 | 3.2 | 0.00 | 0.00 | 0.00 | 86 | 1008.0 |
| 20260901045638 | 17 | 304 | 1.6 | 4.8 | 0.00 | 0.00 | 0.00 | 86 | 1008.0 |
| 20260901045133 | 17 | 293 | 0.0 | 0.0 | 0.00 | 0.00 | 0.00 | 85 | 1007.7 |
| 20260901044628 | 17 | 269 | 0.0 | 1.6 | 0.00 | 0.00 | 0.00 | 85 | 1007.7 |
| 20260901044125 | 17 | 286 | 1.6 | 3.2 | 0.00 | 0.00 | 0.00 | 84 | 1007.7 |
| 20260901043620 | 18 | 274 | 0.0 | 1.6 | 0.00 | 0.00 | 0.00 | 84 | 1007.7 |
| 20260901043116 | 18 | 295 | 0.0 | 3.2 | 0.00 | 0.00 | 0.00 | 83 | 1007.8 |
| 20260901042614 | 18 | 248 | 0.0 | 6.4 | 0.00 | 0.00 | 0.00 | 82 | 1007.9 |
| 20260901042110 | 18 | 242 | 1.6 | 6.4 | 0.00 | 0.00 | 0.00 | 82 | 1008.0 |
| 20260901041606 | 18 | 297 | 0.0 | 4.8 | 0.00 | 0.00 | 0.00 | 81 | 1008.2 |
| 20260901041100 | 18 | 283 | 0.0 | 4.8 | 0.00 | 0.00 | 0.00 | 80 | 1007.9 |
| 20260901040600 | 18 | 270 | 0.0 | 1.6 | 0.00 | 0.00 | 0.00 | 80 | 1008.0 |
| 20260901040055 | 18 | 244 | 0.0 | 6.4 | 0.00 | 0.00 | 0.00 | 80 | 1007.9 |
| 20260901035553 | 19 | 266 | 1.6 | 4.8 | 0.00 | 0.00 | 0.00 | 79 | 1007.8 |
| 20260901035052 | 19 | 296 | 3.2 | 6.4 | 0.00 | 0.00 | 0.00 | 78 | 1007.5 |
| 20260901034551 | 19 | 253 | 1.6 | 6.4 | 0.00 | 0.00 | 0.00 | 78 | 1007.6 |
| 20260901034051 | 20 | 268 | 3.2 | 9.7 | 0.00 | 0.00 | 0.00 | 77 | 1007.3 |
| 20260901033550 | 20 | 281 | 1.6 | 6.4 | 0.00 | 0.00 | 0.00 | 76 | 1007.4 |
| 20260901033045 | 20 | 282 | 8.0 | 12.9 | 0.00 | 0.00 | 0.00 | 75 | 1007.2 |
| 20260901032544 | 20 | 298 | 3.2 | 11.3 | 0.00 | 0.00 | 0.00 | 75 | 1007.2 |
| 20260901032039 | 20 | 301 | 3.2 | 9.7 | 0.00 | 0.00 | 0.00 | 74 | 1006.8 |
| 20260901031534 | 21 | 180 | 3.2 | 6.4 | 0.00 | 0.00 | 0.00 | 73 | 1006.8 |
| 20260901031030 | 21 | 268 | 1.6 | 6.4 | 0.00 | 0.00 | 0.00 | 73 | 1006.9 |
| 20260901030530 | 21 | 255 | 1.6 | 9.7 | 0.00 | 0.00 | 0.00 | 72 | 1006.8 |
| 20260901030030 | 21 | 311 | 1.6 | 6.4 | 0.00 | 0.00 | 0.00 | 71 | 1007.0 |
| 20260901025525 | 21 | 270 | 6.4 | 9.7 | 0.00 | 0.00 | 0.00 | 71 | 1006.7 |
| 20260901025024 | 22 | 252 | 1.6 | 6.4 | 0.00 | 0.00 | 0.00 | 70 | 1006.8 |
| 20260901024520 | 22 | 269 | 1.6 | 4.8 | 0.00 | 0.00 | 0.00 | 69 | 1006.7 |
| 20260901024019 | 22 | 285 | 1.6 | 9.7 | 0.00 | 0.00 | 0.00 | 68 | 1006.7 |
| 20260901023518 | 22 | 280 | 6.4 | 11.3 | 0.00 | 0.00 | 0.00 | 67 | 1006.6 |
| 20260901023014 | 23 | 306 | 0.0 | 4.8 | 0.00 | 0.00 | 0.00 | 67 | 1006.5 |
| 20260901022509 | 23 | 277 | 0.0 | 3.2 | 0.00 | 0.00 | 0.00 | 65 | 1006.5 |
| 20260901022004 | 23 | 288 | 1.6 | 12.9 | 0.00 | 0.00 | 0.00 | 64 | 1006.5 |
| 20260901021459 | 24 | 300 | 6.4 | 12.9 | 0.00 | 0.00 | 0.00 | 62 | 1006.4 |
| 20260901020954 | 25 | 306 | 6.4 | 12.9 | 0.00 | 0.00 | 0.00 | 60 | 1006.5 |
| 20260901020450 | 25 | 282 | 1.6 | 11.3 | 0.00 | 0.00 | 0.00 | 58 | 1006.3 |
| 20260901015948 | 25 | 313 | 6.4 | 11.3 | 0.00 | 0.00 | 0.00 | 56 | 1006.2 |
| 20260901015445 | 25 | 252 | 3.2 | 9.7 | 0.00 | 0.00 | 0.00 | 55 | 1006.2 |
| 20260901014945 | 26 | 303 | 4.8 | 11.3 | 0.00 | 0.00 | 0.00 | 54 | 1006.2 |
| 20260901014441 | 26 | 251 | 1.6 | 6.4 | 0.00 | 0.00 | 0.00 | 52 | 1006.2 |
| 20260901013936 | 26 | 256 | 0.0 | 11.3 | 0.00 | 0.00 | 0.00 | 51 | 1006.0 |
| 20260901013432 | 26 | 269 | 6.4 | 12.9 | 0.00 | 0.00 | 0.00 | 50 | 1006.1 |
| 20260901012928 | 27 | 296 | 4.8 | 9.7 | 0.00 | 0.00 | 0.00 | 49 | 1006.0 |
| 20260901012422 | 27 | 268 | 0.0 | 9.7 | 0.00 | 0.00 | 0.00 | 48 | 1006.1 |
| 20260901011918 | 28 | 269 | 0.0 | 6.4 | 0.00 | 0.00 | 0.00 | 49 | 1006.1 |
| 20260901011414 | 28 | 277 | 6.4 | 9.7 | 0.00 | 0.00 | 0.00 | 46 | 1006.2 |
| 20260901010912 | 28 | 283 | 1.6 | 11.3 | 0.00 | 0.00 | 0.00 | 45 | 1006.1 |
| 20260901010407 | 28 | 294 | 0.0 | 3.2 | 0.00 | 0.00 | 0.00 | 45 | 1006.1 |
| 20260901005906 | 28 | 207 | 3.2 | 11.3 | 0.00 | 0.00 | 0.00 | 43 | 1005.9 |
| 20260901005401 | 28 | 256 | 3.2 | 4.8 | 0.00 | 0.00 | 0.00 | 44 | 1005.9 |
| 20260901004856 | 28 | 295 | 4.8 | 6.4 | 0.00 | 0.00 | 0.00 | 42 | 1006.1 |
| 20260901004355 | 28 | 257 | 1.6 | 4.8 | 0.00 | 0.00 | 0.00 | 41 | 1006.1 |
| 20260901003850 | 29 | 273 | 0.0 | 4.8 | 0.00 | 0.00 | 0.00 | 40 | 1006.0 |
| 20260901003345 | 30 | 297 | 0.0 | 0.0 | 0.00 | 0.00 | 0.00 | 40 | 1006.0 |
| 20260901002843 | 30 | 284 | 3.2 | 4.8 | 0.00 | 0.00 | 0.00 | 39 | 1006.0 |
| 20260901002343 | 30 | 275 | 0.0 | 1.6 | 0.00 | 0.00 | 0.00 | 42 | 1005.9 |
| 20260901001844 | 30 | 213 | 1.6 | 4.8 | 0.00 | 0.00 | 0.00 | 41 | 1006.1 |
| 20260901001339 | 30 | 281 | 1.6 | 3.2 | 0.00 | 0.00 | 0.00 | 42 | 1006.0 |
| 20260901000835 | 29 | 268 | 0.0 | 0.0 | 0.00 | 0.00 | 0.00 | 43 | 1006.0 |
| 20260901000330 | 29 | 184 | 0.0 | 3.2 | 0.00 | 0.00 | 0.00 | 41 | 1006.0 |
| 20260831235828 | 28 | 285 | 0.0 | 1.6 | 0.00 | 0.00 | 0.00 | 42 | 1006.1 |
| 20260831235324 | 28 | 292 | 0.0 | 0.0 | 0.00 | 0.00 | 0.00 | 43 | 1006.1 |
| 20260831234824 | 29 | 235 | 0.0 | 1.6 | 0.00 | 0.00 | 0.00 | 41 | 1006.2 |
| 20260831234319 | 28 | 260 | 0.0 | 0.0 | 0.00 | 0.00 | 0.00 | 42 | 1006.3 |
| 20260831233814 | 28 | 63 | 0.0 | 0.0 | 0.00 | 0.00 | 0.00 | 42 | 1006.2 |
| 20260831233309 | 28 | 259 | 0.0 | 0.0 | 0.00 | 0.00 | 0.00 | 43 | 1006.2 |
| 20260831232804 | 28 | 309 | 0.0 | 3.2 | 0.00 | 0.00 | 0.00 | 44 | 1006.4 |
| 20260831232301 | 28 | 75 | 0.0 | 0.0 | 0.00 | 0.00 | 0.00 | 43 | 1006.3 |
| 20260831231756 | 28 | 265 | 0.0 | 1.6 | 0.00 | 0.00 | 0.00 | 43 | 1006.5 |
| 20260831231253 | 28 | 297 | 0.0 | 0.0 | 0.00 | 0.00 | 0.00 | 43 | 1006.4 |
| 20260831230753 | 28 | 233 | 0.0 | 0.0 | 0.00 | 0.00 | 0.00 | 44 | 1006.5 |
| 20260831230248 | 28 | 293 | 0.0 | 0.0 | 0.00 | 0.00 | 0.00 | 44 | 1006.4 |
| 20260831225748 | 28 | 96 | 0.0 | 0.0 | 0.00 | 0.00 | 0.00 | 43 | 1006.6 |
| 20260831225243 | 28 | 41 | 1.6 | 3.2 | 0.00 | 0.00 | 0.00 | 43 | 1006.6 |
| 20260831224738 | 28 | 113 | 1.6 | 3.2 | 0.00 | 0.00 | 0.00 | 43 | 1006.7 |
| 20260831224233 | 28 | 62 | 0.0 | 0.0 | 0.00 | 0.00 | 0.00 | 45 | 1007.0 |
| 20260831223728 | 28 | 279 | 0.0 | 0.0 | 0.00 | 0.00 | 0.00 | 43 | 1006.8 |
| 20260831223225 | 28 | 164 | 0.0 | 1.6 | 0.00 | 0.00 | 0.00 | 45 | 1006.8 |
| 20260831222721 | 28 | 355 | 0.0 | 0.0 | 0.00 | 0.00 | 0.00 | 45 | 1006.8 |
| 20260831222216 | 28 | 53 | 0.0 | 1.6 | 0.00 | 0.00 | 0.00 | 43 | 1006.9 |
| 20260831221712 | 30 | 206 | 0.0 | 0.0 | 0.00 | 0.00 | 0.00 | 41 | 1006.8 |
| 20260831221207 | 29 | 44 | 0.0 | 0.0 | 0.00 | 0.00 | 0.00 | 43 | 1007.0 |
| 20260831220702 | 29 | 49 | 0.0 | 3.2 | 0.00 | 0.00 | 0.00 | 43 | 1006.9 |
| 20260831220157 | 29 | 278 | 0.0 | 0.0 | 0.00 | 0.00 | 0.00 | 43 | 1007.2 |
| 20260831215652 | 28 | 257 | 0.0 | 4.8 | 0.00 | 0.00 | 0.00 | 45 | 1007.2 |
| 20260831215148 | 29 | 251 | 0.0 | 1.6 | 0.00 | 0.00 | 0.00 | 44 | 1007.4 |
| 20260831214645 | 28 | 55 | 0.0 | 4.8 | 0.00 | 0.00 | 0.00 | 45 | 1007.4 |
| 20260831214141 | 28 | 160 | 0.0 | 0.0 | 0.00 | 0.00 | 0.00 | 44 | 1007.6 |
| 20260831213637 | 29 | 292 | 0.0 | 0.0 | 0.00 | 0.00 | 0.00 | 45 | 1007.6 |
| 20260831213132 | 27 | 33 | 0.0 | 0.0 | 0.00 | 0.00 | 0.00 | 46 | 1007.5 |
| 20260831212628 | 28 | 311 | 1.6 | 3.2 | 0.00 | 0.00 | 0.00 | 47 | 1007.7 |
| 20260831212125 | 28 | 309 | 0.0 | 4.8 | 0.00 | 0.00 | 0.00 | 49 | 1007.8 |
| 20260831211624 | 28 | 195 | 0.0 | 0.0 | 0.00 | 0.00 | 0.00 | 46 | 1007.8 |
| 20260831211123 | 27 | 240 | 3.2 | 3.2 | 0.00 | 0.00 | 0.00 | 45 | 1007.6 |
| 20260831210619 | 28 | 253 | 0.0 | 3.2 | 0.00 | 0.00 | 0.00 | 47 | 1007.7 |
| 20260831210115 | 27 | 236 | 0.0 | 0.0 | 0.00 | 0.00 | 0.00 | 49 | 1007.8 |
| 20260831205614 | 27 | 74 | 0.0 | 0.0 | 0.00 | 0.00 | 0.00 | 47 | 1007.9 |
| 20260831205110 | 27 | 227 | 0.0 | 1.6 | 0.00 | 0.00 | 0.00 | 48 | 1008.1 |
| 20260831204605 | 27 | 315 | 0.0 | 0.0 | 0.00 | 0.00 | 0.00 | 48 | 1008.1 |
| 20260831204103 | 27 | 273 | 0.0 | 3.2 | 0.00 | 0.00 | 0.00 | 47 | 1007.9 |
| 20260831203603 | 27 | 312 | 0.0 | 0.0 | 0.00 | 0.00 | 0.00 | 50 | 1008.4 |
| 20260831203102 | 27 | 324 | 0.0 | 1.6 | 0.00 | 0.00 | 0.00 | 50 | 1008.2 |
| 20260831202601 | 27 | 203 | 0.0 | 4.8 | 0.00 | 0.00 | 0.00 | 49 | 1008.2 |
| 20260831202102 | 27 | 259 | 0.0 | 0.0 | 0.00 | 0.00 | 0.00 | 48 | 1008.5 |
| 20260831201600 | 26 | 221 | 0.0 | 0.0 | 0.00 | 0.00 | 0.00 | 50 | 1008.6 |
| 20260831201055 | 27 | 56 | 0.0 | 3.2 | 0.00 | 0.00 | 0.00 | 49 | 1008.4 |
| 20260831200551 | 26 | 38 | 1.6 | 4.8 | 0.00 | 0.00 | 0.00 | 49 | 1008.7 |
| 20260831200052 | 26 | 37 | 1.6 | 4.8 | 0.00 | 0.00 | 0.00 | 51 | 1008.8 |
| 20260831195547 | 26 | 60 | 0.0 | 3.2 | 0.00 | 0.00 | 0.00 | 54 | 1009.0 |
| 20260831195042 | 26 | 86 | 0.0 | 4.8 | 0.00 | 0.00 | 0.00 | 51 | 1008.9 |
| 20260831194537 | 26 | 64 | 0.0 | 6.4 | 0.00 | 0.00 | 0.00 | 52 | 1008.8 |
| 20260831194032 | 26 | 49 | 3.2 | 11.3 | 0.00 | 0.00 | 0.00 | 51 | 1009.1 |
| 20260831193527 | 25 | 62 | 0.0 | 3.2 | 0.00 | 0.00 | 0.00 | 53 | 1009.1 |
| 20260831193022 | 25 | 54 | 1.6 | 4.8 | 0.00 | 0.00 | 0.00 | 53 | 1009.3 |
| 20260831192517 | 25 | 89 | 0.0 | 3.2 | 0.00 | 0.00 | 0.00 | 52 | 1009.3 |
| 20260831192013 | 25 | 265 | 3.2 | 4.8 | 0.00 | 0.00 | 0.00 | 53 | 1009.1 |
| 20260831191509 | 25 | 53 | 1.6 | 4.8 | 0.00 | 0.00 | 0.00 | 57 | 1009.3 |
| 20260831191005 | 25 | 175 | 0.0 | 6.4 | 0.00 | 0.00 | 0.00 | 54 | 1009.5 |
| 20260831190500 | 25 | 210 | 0.0 | 1.6 | 0.00 | 0.00 | 0.00 | 54 | 1009.6 |
| 20260831185958 | 24 | 197 | 0.0 | 1.6 | 0.00 | 0.00 | 0.00 | 55 | 1009.8 |
| 20260831185454 | 25 | 62 | 1.6 | 6.4 | 0.00 | 0.00 | 0.00 | 54 | 1009.9 |
| 20260831184954 | 24 | 54 | 3.2 | 6.4 | 0.00 | 0.00 | 0.00 | 55 | 1009.6 |
| 20260831184449 | 23 | 62 | 0.0 | 1.6 | 0.00 | 0.00 | 0.00 | 57 | 1009.7 |
| 20260831183944 | 23 | 80 | 0.0 | 3.2 | 0.00 | 0.00 | 0.00 | 60 | 1009.9 |
| 20260831183443 | 23 | 63 | 1.6 | 6.4 | 0.00 | 0.00 | 0.00 | 58 | 1009.9 |
| 20260831182943 | 23 | 222 | 0.0 | 3.2 | 0.00 | 0.00 | 0.00 | 57 | 1010.0 |
| 20260831182439 | 23 | 51 | 1.6 | 3.2 | 0.00 | 0.00 | 0.00 | 57 | 1010.2 |
| 20260831181934 | 22 | 165 | 0.0 | 1.6 | 0.00 | 0.00 | 0.00 | 62 | 1010.2 |
| 20260831181429 | 22 | 252 | 0.0 | 4.8 | 0.00 | 0.00 | 0.00 | 61 | 1010.5 |
| 20260831180924 | 22 | 304 | 0.0 | 3.2 | 0.00 | 0.00 | 0.00 | 64 | 1010.4 |
| 20260831180423 | 21 | 329 | 0.0 | 9.7 | 0.00 | 0.00 | 0.00 | 64 | 1010.5 |
| 20260831175923 | 21 | 90 | 1.6 | 12.9 | 0.00 | 0.00 | 0.00 | 65 | 1010.5 |
| 20260831175420 | 21 | 65 | 1.6 | 3.2 | 0.00 | 0.00 | 0.00 | 64 | 1010.5 |
| 20260831174915 | 21 | 8 | 3.2 | 4.8 | 0.00 | 0.00 | 0.00 | 64 | 1010.7 |
| 20260831174410 | 21 | 70 | 1.6 | 6.4 | 0.00 | 0.00 | 0.00 | 66 | 1010.8 |
| 20260831173909 | 20 | 103 | 0.0 | 3.2 | 0.00 | 0.00 | 0.00 | 69 | 1010.6 |
| 20260831173403 | 21 | 81 | 3.2 | 6.4 | 0.00 | 0.00 | 0.00 | 65 | 1011.0 |
| 20260831172859 | 21 | 242 | 0.0 | 0.0 | 0.00 | 0.00 | 0.00 | 64 | 1011.2 |
| 20260831172355 | 21 | 124 | 0.0 | 1.6 | 0.00 | 0.00 | 0.00 | 65 | 1011.0 |
| 20260831171854 | 20 | 307 | 0.0 | 0.0 | 0.00 | 0.00 | 0.00 | 68 | 1011.0 |
| 20260831171350 | 21 | 289 | 1.6 | 3.2 | 0.00 | 0.00 | 0.00 | 69 | 1011.0 |
| 20260831170847 | 20 | 212 | 0.0 | 6.4 | 0.00 | 0.00 | 0.00 | 70 | 1011.2 |
| 20260831170343 | 20 | 85 | 0.0 | 1.6 | 0.00 | 0.00 | 0.00 | 69 | 1011.0 |
| 20260831165839 | 20 | 293 | 0.0 | 0.0 | 0.00 | 0.00 | 0.00 | 72 | 1011.0 |
| 20260831165335 | 19 | 236 | 0.0 | 0.0 | 0.00 | 0.00 | 0.00 | 71 | 1011.1 |
| 20260831164831 | 19 | 63 | 0.0 | 0.0 | 0.00 | 0.00 | 0.00 | 72 | 1011.1 |
| 20260831164327 | 18 | 272 | 0.0 | 1.6 | 0.00 | 0.00 | 0.00 | 73 | 1011.3 |
| 20260831163823 | 18 | 266 | 0.0 | 0.0 | 0.00 | 0.00 | 0.00 | 74 | 1011.4 |
| 20260831163318 | 18 | 178 | 0.0 | 0.0 | 0.00 | 0.00 | 0.00 | 76 | 1011.4 |
| 20260831162816 | 17 | 177 | 0.0 | 1.6 | 0.00 | 0.00 | 0.00 | 78 | 1011.4 |
| 20260831162312 | 17 | 299 | 0.0 | 1.6 | 0.00 | 0.00 | 0.00 | 77 | 1011.3 |
| 20260831161810 | 17 | 215 | 0.0 | 0.0 | 0.00 | 0.00 | 0.00 | 78 | 1011.4 |
| 20260831161307 | 17 | 213 | 0.0 | 0.0 | 0.00 | 0.00 | 0.00 | 80 | 1011.5 |
| 20260831160802 | 16 | 213 | 0.0 | 1.6 | 0.00 | 0.00 | 0.00 | 81 | 1011.6 |
| 20260831160256 | 16 | 305 | 0.0 | 0.0 | 0.00 | 0.00 | 0.00 | 83 | 1011.8 |
| 20260831155756 | 16 | 276 | 0.0 | 0.0 | 0.00 | 0.00 | 0.00 | 82 | 1011.9 |
| 20260831155251 | 16 | 244 | 0.0 | 0.0 | 0.00 | 0.00 | 0.00 | 83 | 1011.8 |
| 20260831154747 | 15 | 203 | 0.0 | 0.0 | 0.00 | 0.00 | 0.00 | 85 | 1011.8 |
| 20260831154243 | 15 | 207 | 0.0 | 0.0 | 0.00 | 0.00 | 0.00 | 85 | 1011.7 |
| 20260831153742 | 15 | 180 | 0.0 | 0.0 | 0.00 | 0.00 | 0.00 | 88 | 1011.8 |
| 20260831153238 | 14 | 254 | 0.0 | 0.0 | 0.00 | 0.00 | 0.00 | 91 | 1012.0 |
| 20260831152733 | 14 | 175 | 0.0 | 0.0 | 0.00 | 0.00 | 0.00 | 91 | 1012.0 |
| 20260831152229 | 14 | 161 | 0.0 | 0.0 | 0.00 | 0.00 | 0.00 | 94 | 1012.2 |
| 20260831151729 | 14 | 164 | 0.0 | 0.0 | 0.00 | 0.00 | 0.00 | 96 | 1012.1 |
| 20260831151229 | 13 | 154 | 0.0 | 0.0 | 0.00 | 0.00 | 0.00 | 99 | 1012.1 |
| 20260831150724 | 13 | 155 | 0.0 | 0.0 | 0.00 | 0.00 | 0.00 | 99 | 1012.1 |
| 20260831150219 | 12 | 155 | 0.0 | 0.0 | 0.00 | 0.00 | 0.00 | 99 | 1012.2 |
| 20260831145719 | 12 | 120 | 0.0 | 0.0 | 0.00 | 0.00 | 0.00 | 99 | 1012.2 |
| 20260831145216 | 12 | 134 | 0.0 | 0.0 | 0.00 | 0.00 | 0.00 | 99 | 1012.1 |
| 20260831144711 | 11 | 134 | 0.0 | 0.0 | 0.00 | 0.00 | 0.00 | 99 | 1012.2 |
| 20260831144207 | 11 | 137 | 0.0 | 0.0 | 0.00 | 0.00 | 0.00 | 99 | 1012.2 |
| 20260831143706 | 10 | 138 | 0.0 | 0.0 | 0.00 | 0.00 | 0.00 | 99 | 1012.2 |
| 20260831143202 | 10 | 138 | 0.0 | 0.0 | 0.00 | 0.00 | 0.00 | 99 | 1012.1 |
| 20260831142658 | 9 | 138 | 0.0 | 0.0 | 0.00 | 0.00 | 0.00 | 99 | 1012.1 |
| 20260831142153 | 9 | 138 | 0.0 | 0.0 | 0.00 | 0.00 | 0.00 | 99 | 1012.4 |
| 20260831141652 | 9 | 144 | 0.0 | 0.0 | 0.00 | 0.00 | 0.00 | 99 | 1012.4 |
| 20260831141147 | 9 | 93 | 0.0 | 0.0 | 0.00 | 0.00 | 0.00 | 99 | 1012.4 |
| 20260831140646 | 8 | 158 | 0.0 | 0.0 | 0.00 | 0.00 | 0.00 | 99 | 1012.4 |
| 20260831140141 | 8 | 101 | 0.0 | 0.0 | 0.00 | 0.00 | 0.00 | 99 | 1012.1 |
| 20260831135639 | 8 | 93 | 0.0 | 0.0 | 0.00 | 0.00 | 0.00 | 99 | 1012.2 |
| 20260831135135 | 8 | 213 | 0.0 | 0.0 | 0.00 | 0.00 | 0.00 | 99 | 1012.2 |
| 20260831134631 | 8 | 156 | 0.0 | 0.0 | 0.00 | 0.00 | 0.00 | 99 | 1012.2 |
| 20260831134126 | 8 | 170 | 0.0 | 0.0 | 0.00 | 0.00 | 0.00 | 99 | 1012.2 |
| 20260831133625 | 8 | 171 | 0.0 | 0.0 | 0.00 | 0.00 | 0.00 | 99 | 1012.3 |
| 20260831133120 | 8 | 163 | 0.0 | 0.0 | 0.00 | 0.00 | 0.00 | 99 | 1012.1 |
| 20260831132616 | 8 | 113 | 0.0 | 0.0 | 0.00 | 0.00 | 0.00 | 99 | 1012.2 |
| 20260831132115 | 8 | 186 | 0.0 | 0.0 | 0.00 | 0.00 | 0.00 | 99 | 1012.4 |
| 20260831131610 | 8 | 121 | 0.0 | 0.0 | 0.00 | 0.00 | 0.00 | 99 | 1012.3 |
| 20260831131106 | 8 | 316 | 0.0 | 0.0 | 0.00 | 0.00 | 0.00 | 99 | 1012.1 |
| 20260831130601 | 8 | 299 | 0.0 | 0.0 | 0.00 | 0.00 | 0.00 | 99 | 1012.3 |
| 20260831130056 | 8 | 169 | 0.0 | 0.0 | 0.00 | 0.00 | 0.00 | 99 | 1012.4 |
| 20260831125555 | 8 | 173 | 0.0 | 0.0 | 0.00 | 0.00 | 0.00 | 99 | 1012.5 |
| 20260831125051 | 8 | 173 | 0.0 | 0.0 | 0.00 | 0.00 | 0.00 | 99 | 1012.3 |
| 20260831124547 | 8 | 158 | 0.0 | 0.0 | 0.00 | 0.00 | 0.00 | 99 | 1012.4 |
| 20260831124042 | 8 | 177 | 0.0 | 0.0 | 0.00 | 0.00 | 0.00 | 99 | 1012.7 |
| 20260831123541 | 8 | 144 | 0.0 | 0.0 | 0.00 | 0.00 | 0.00 | 99 | 1012.5 |
| 20260831123036 | 8 | 86 | 0.0 | 0.0 | 0.00 | 0.00 | 0.00 | 99 | 1012.4 |
| 20260831122531 | 8 | 161 | 0.0 | 0.0 | 0.00 | 0.00 | 0.00 | 99 | 1012.4 |
| 20260831122026 | 8 | 136 | 0.0 | 0.0 | 0.00 | 0.00 | 0.00 | 99 | 1012.5 |
| 20260831121521 | 8 | 137 | 0.0 | 0.0 | 0.00 | 0.00 | 0.00 | 99 | 1012.7 |
| 20260831121017 | 8 | 134 | 0.0 | 0.0 | 0.00 | 0.00 | 0.00 | 99 | 1012.6 |
| 20260831120516 | 8 | 125 | 0.0 | 0.0 | 0.00 | 0.00 | 0.00 | 99 | 1012.7 |
| 20260831120012 | 8 | 183 | 0.0 | 0.0 | 0.00 | 0.00 | 0.00 | 99 | 1012.7 |
| 20260831115508 | 9 | 190 | 0.0 | 0.0 | 0.00 | 0.00 | 0.00 | 99 | 1012.9 |
| 20260831115009 | 8 | 273 | 0.0 | 0.0 | 0.00 | 0.00 | 0.00 | 99 | 1012.9 |
| 20260831114507 | 9 | 269 | 0.0 | 0.0 | 0.00 | 0.00 | 0.00 | 99 | 1012.8 |
| 20260831114003 | 9 | 269 | 0.0 | 0.0 | 0.00 | 0.00 | 0.00 | 99 | 1012.7 |
| 20260831113502 | 9 | 286 | 0.0 | 0.0 | 0.00 | 0.00 | 0.00 | 99 | 1012.8 |
| 20260831112958 | 9 | 287 | 0.0 | 0.0 | 0.00 | 0.00 | 0.00 | 99 | 1012.8 |
| 20260831112457 | 9 | 287 | 0.0 | 0.0 | 0.00 | 0.00 | 0.00 | 99 | 1013.0 |
| 20260831111952 | 9 | 159 | 0.0 | 0.0 | 0.00 | 0.00 | 0.00 | 99 | 1013.1 |
| 20260831111448 | 9 | 124 | 0.0 | 0.0 | 0.00 | 0.00 | 0.00 | 99 | 1012.9 |
| 20260831110944 | 9 | 114 | 0.0 | 0.0 | 0.00 | 0.00 | 0.00 | 99 | 1013.1 |
| 20260831110439 | 10 | 230 | 0.0 | 0.0 | 0.00 | 0.00 | 0.00 | 99 | 1012.9 |
| 20260831105938 | 9 | 221 | 0.0 | 0.0 | 0.00 | 0.00 | 0.00 | 99 | 1013.3 |
| 20260831105433 | 9 | 221 | 0.0 | 0.0 | 0.00 | 0.00 | 0.00 | 99 | 1013.1 |
| 20260831104928 | 9 | 277 | 0.0 | 0.0 | 0.00 | 0.00 | 0.00 | 99 | 1013.3 |
| 20260831104425 | 9 | 292 | 0.0 | 0.0 | 0.00 | 0.00 | 0.00 | 99 | 1013.3 |
| 20260831103920 | 9 | 295 | 0.0 | 0.0 | 0.00 | 0.00 | 0.00 | 99 | 1013.1 |
| 20260831103420 | 9 | 193 | 0.0 | 0.0 | 0.00 | 0.00 | 0.00 | 99 | 1013.2 |
| 20260831102915 | 10 | 135 | 0.0 | 0.0 | 0.00 | 0.00 | 0.00 | 99 | 1013.3 |
| 20260831102415 | 10 | 142 | 0.0 | 0.0 | 0.00 | 0.00 | 0.00 | 99 | 1013.2 |
| 20260831101911 | 10 | 154 | 0.0 | 0.0 | 0.00 | 0.00 | 0.00 | 99 | 1013.3 |
| 20260831101406 | 9 | 155 | 0.0 | 0.0 | 0.00 | 0.00 | 0.00 | 99 | 1013.3 |
| 20260831100902 | 9 | 120 | 0.0 | 0.0 | 0.00 | 0.00 | 0.00 | 99 | 1013.3 |
| 20260831100358 | 9 | 154 | 0.0 | 0.0 | 0.00 | 0.00 | 0.00 | 99 | 1013.4 |
| 20260831095858 | 9 | 175 | 0.0 | 0.0 | 0.00 | 0.00 | 0.00 | 99 | 1013.5 |
| 20260831095357 | 10 | 178 | 0.0 | 0.0 | 0.00 | 0.00 | 0.00 | 99 | 1013.5 |
| 20260831094853 | 10 | 130 | 0.0 | 0.0 | 0.00 | 0.00 | 0.00 | 99 | 1013.6 |
| 20260831094348 | 10 | 124 | 0.0 | 0.0 | 0.00 | 0.00 | 0.00 | 99 | 1013.5 |
| 20260831093844 | 10 | 117 | 0.0 | 0.0 | 0.00 | 0.00 | 0.00 | 99 | 1013.5 |
| 20260831093339 | 10 | 150 | 0.0 | 0.0 | 0.00 | 0.00 | 0.00 | 99 | 1013.5 |
| 20260831092835 | 10 | 169 | 0.0 | 0.0 | 0.00 | 0.00 | 0.00 | 99 | 1013.6 |
| 20260831092331 | 10 | 171 | 0.0 | 0.0 | 0.00 | 0.00 | 0.00 | 99 | 1013.7 |
| 20260831091826 | 10 | 157 | 0.0 | 0.0 | 0.00 | 0.00 | 0.00 | 99 | 1013.9 |
| 20260831091321 | 10 | 181 | 0.0 | 0.0 | 0.00 | 0.00 | 0.00 | 99 | 1013.8 |
| 20260831090816 | 10 | 193 | 0.0 | 0.0 | 0.00 | 0.00 | 0.00 | 99 | 1013.8 |
| 20260831090312 | 10 | 194 | 0.0 | 0.0 | 0.00 | 0.00 | 0.00 | 99 | 1013.9 |
| 20260831085809 | 10 | 215 | 0.0 | 0.0 | 0.00 | 0.00 | 0.00 | 99 | 1013.8 |
| 20260831085306 | 10 | 197 | 0.0 | 0.0 | 0.00 | 0.00 | 0.00 | 99 | 1013.9 |
| 20260831084758 | 10 | 185 | 0.0 | 0.0 | 0.00 | 0.00 | 0.00 | 99 | 1014.1 |
| 20260831084254 | 10 | 128 | 0.0 | 0.0 | 0.00 | 0.00 | 0.00 | 99 | 1014.1 |
| 20260831083749 | 10 | 170 | 0.0 | 0.0 | 0.00 | 0.00 | 0.00 | 99 | 1014.2 |
| 20260831083245 | 10 | 188 | 0.0 | 0.0 | 0.00 | 0.00 | 0.00 | 99 | 1014.3 |